Location: Czekanka
(50.4925°N, 19.2643°E)
Time: 20:03:37
(UTC+00:00)

Cosmos 2263 Rocket - Visible Passes

Search period start: 19 September 2024 00:00
Search period end: 29 September 2024 00:00
Orbit: 821 x 849 km, 71.0° (Epoch: 18 September)

Date Brightness Start Highest point End Pass type
(mag) Time Alt. Az. Time Alt. Az. Time Alt. Az.
19 Sep 4.9 02:43:51 10° SE 02:46:56 15° E 02:50:02 10° ENE visible
20 Sep 5.0 02:27:15 10° SE 02:29:59 14° E 02:32:43 10° ENE visible
21 Sep 5.0 02:10:44 10° ESE 02:13:02 13° E 02:15:21 10° ENE visible
21 Sep 2.6 03:50:18 10° SSW 03:55:54 71° ESE 04:01:34 10° NNE visible
22 Sep 5.0 01:54:21 10° ESE 01:56:05 11° E 01:57:50 10° ENE visible
22 Sep 2.6 03:33:19 10° SSW 03:38:53 66° ESE 03:44:31 10° NNE visible
23 Sep 5.1 01:38:18 10° ESE 01:39:09 10° E 01:40:00 10° E visible
23 Sep 2.7 03:16:20 10° SSW 03:21:53 61° ESE 03:27:28 10° NE visible
24 Sep 2.8 02:59:22 10° S 03:04:51 57° ESE 03:10:25 10° NE visible
25 Sep 2.9 02:42:25 10° S 02:47:51 53° ESE 02:53:22 10° NE visible
26 Sep 3.0 02:26:02 13° S 02:30:51 49° ESE 02:36:18 10° NE visible
27 Sep 3.1 02:10:10 19° S 02:13:51 45° ESE 02:19:14 10° NE visible
27 Sep 2.8 03:52:35 10° WSW 03:57:52 39° NW 04:03:12 10° NNE visible
28 Sep 3.2 01:54:13 26° SSE 01:56:51 42° ESE 02:02:09 10° NE visible
28 Sep 2.7 03:35:56 12° WSW 03:40:47 42° NW 03:46:12 10° NNE visible
